Regional Weather Roundup
Issued by NWS New Orleans/Baton Rouge, LA

Home | Current Version | Previous Version | Graphics & Text | Print | Product List | Glossary On
Versions: 1 2 3 4 5 6 7 8 9 10 11 12 13 14 15 16 17 18 19 20 21 22 23 24 25 26 27 28 29 30 31 32 33 34 35 36 37 38 39 40 41 42 43 44 45 46 47 48 49 50
561
ASUS44 KLIX 151510
RWRLIX
NEW ORLEANS REGIONAL WEATHER ROUNDUP
NATIONAL WEATHER SERVICE NEW ORLEANS LA
1000 AM CDT MON SEP 15 2014

NOTE: "FAIR" INDICATES FEW OR NO CLOUDS BELOW 12,000 FEET WITH NO
      SIGNIFICANT WEATHER AND/OR OBSTRUCTIONS TO VISIBILITY.
      SKY/WX - SKY CONDITION AND SIGNIFICANT WEATHER.
      TMP - AIR TEMPERATURE.     DP    - DEWPOINT TEMPERATURE.
      RH  - RELATIVE HUMIDITY.   PRES  - PRESSURE.
      HI  - HEAT INDEX.          WCI   - WIND CHILL INDEX.

*  THESE STATIONS ARE NOT NWS OR FAA STATIONS AND ARE NOT UNDER
   NWS QUALITY CONTROL.

LAZ038-040-048-061>063-065>067-069-151600-
SOUTHEAST LOUISIANA

CITY           SKY/WX    TMP DP  RH WIND       PRES   REMARKS
N.O. AUDUBON   NOT AVBL
N.O. INTL ARPT PTSUNNY   87  77  72 E7        30.10R HX  99
N.O. LAKEFRONT MOSUNNY   85  77  77 NE12      30.10S HX  95
N.O. DOWNTOWN* PTSUNNY   82  73  74 E5        30.10S
SLIDELL        SUNNY     85  75  72 E8        30.09F
BATON ROUGE    MOSUNNY   84  75  74 E6        30.11R
BOOTHVILLE     SUNNY     86  76  71 E5        30.10R HX  96
BELLE CHASSE   PTSUNNY   87  74  64 E6        30.09S HX  95
BOGALUSA*        N/A     86  74  69 E5        30.13S
GALLIANO*      NOT AVBL
NEW ROADS*       N/A     82  74  76 CALM      30.11S
GONZALES*        N/A     85  80  86 NE3       30.10R HX  98
HAMMOND*       SUNNY     86  73  66 E5        30.12S
HOUMA*         MOSUNNY   88  73  62 NE9       30.09S HX  96
PORT FOURCHON* SUNNY     86  75  70 VRB6      30.12R HX  95

$$

MSZ070-080>082-151600-
SOUTHERN MISSISSIPPI

CITY           SKY/WX    TMP DP  RH WIND       PRES   REMARKS
MCCOMB         SUNNY     83  72  69 NE3       30.13S
GULFPORT       MOSUNNY   87  75  67 E9        30.10S HX  96
BILOXI         MOSUNNY   87  76  67 E8        30.10S HX  97
PASCAGOULA     MOSUNNY   86  76  71 E5        30.11R HX  96
STENNIS ARPT*  MOSUNNY   86  72  62 NE7       30.10F

$$

COASTAL OBSERVATIONS
LAKE AND NEARSHORE STATIONS

STATION/POSITION TIME  TEMP    WIND        PRES    WAVE
                       AIR SEA DIR/SP/G            HT/PER
                 (UTC) (F)     (DEG/KT/KT) (MB)    (FT/S)
PASCAGOULA       1500   85      70/ 10/ 12 1019.0
WAVELAND YACHT   1500   83      80/  5/  6 1018.9
GRAND ISLE       1500   86 85  120/  4/  7 1019.7
SOUTHWEST PASS   1500   89 90  120/  5/  7 1019.4
NEW CANAL        1500   82 82   60/ 12/ 13 1019.4
SHELL BEACH      1500   84 79   40/  5/  6 1019.0

OFFSHORE STATIONS

STATION/POSITION TIME  TEMP    WIND        PRES    WAVE
                       AIR SEA DIR/SP/G            HT/PER
                 (UTC) (F)     (DEG/KT/KT) (MB)    (FT/S)
64 S DAUPHIN ISL 1416   83 86  160/  8/ 12 1019.5    3/ 7

$$




USA.gov is the U.S. government's official web portal to all federal, state and local government web resources and services.